Tracking 25710 objects as of 6-Jul-2022
HD Live streaming from Space Station
objects crossing your sky now

ATLAS 5 CENTAUR DEB

Track ATLAS 5 CENTAUR DEB now!


NORAD ID: 43994
Int'l Code: 2014-055AZ
Perigee: 9,144.3 km
Apogee: 35,003.5 km
Inclination: 21.4 °
Period: 795.7 minutes
Semi major axis: 28444 km
RCS: Unknown
Launch date: September 17, 2014
Source: United States (US)
Launch site: AIR FORCE EASTERN TEST RANGE (AFETR)

Note: This is SATELLITE DEBRIS
aabbcc
Your satellite tracking list
Your tracking list is empty




NASA's NSSDC Master Catalog

Two Line Element Set (TLE):
1 43994U 14055AZ  22185.99755864 -.00000066  00000-0  00000-0 0  9998
2 43994  21.4418 302.0313 4545479 248.3220  58.4002  1.80965728 24700
Source of the keplerian elements: AFSPC